York, PA

5:54 PM EST on December 13, 2017 (GMT -0500)
York

Weather History for KTHV - September, 2013

Change the Weather History Date:

Wednesday, September 25, 2013

  Actual Average Record
Temperature  
Mean Temperature 56 °F -  
Max Temperature 73 °F 0 °F 90 °F (2017)
Min Temperature 39 °F - 36 °F (1997)
Degree Days  
Heating Degree Days 9    
Growing Degree Days 6 (Base 50)    
Moisture  
Dew Point 43 °F    
Average Humidity 71    
Maximum Humidity 93    
Minimum Humidity 30    
Precipitation  
Precipitation 0.01 in - - ()
Sea Level Pressure  
Sea Level Pressure 29.97 in    
Wind  
Wind Speed 1 mph (NNE)    
Max Wind Speed 7 mph    
Max Gust Speed -    
Visibility 10 miles    
Events      
Averages and records for this station are not official NWS values.
T = Trace of Precipitation, MM = Missing Value Source: NWS Daily Summary

Daily Weather History Graph

Daily Weather History Graph

Search for Another Location

Airport or City:

Trip Planner

Search our weather history database for the weather conditions in past years. The results will help you decide how hot, cold, wet, or windy it might be!

Date:

Astronomy

Sep. 25, 2013 Rise Set
Actual Time 6:58 AM EDT 6:59 PM EDT
Civil Twilight 6:31 AM EDT 7:26 PM EDT
Nautical Twilight 5:59 AM EDT 7:57 PM EDT
Astronomical Twilight 5:27 AM EDT 8:29 PM EDT
Moon 11:04 PM EDT (9/25) 1:01 PM EDT (9/25)
Length of Visible Light 12h 55m
Length of Day
12h 01m
Waning Gibbous, 64% of the Moon is Illuminated
Sep 25
Waning Gibbous
Sep 26
Last Quarter
Oct 4
New
Oct 11
First Quarter
Oct 18
Full

Hourly Weather History & Observations

Time (EDT) Temp. Dew Point Humidity Pressure Visibility Wind Dir Wind Speed Gust Speed Precip Events Conditions
12:53 AM 44.1 °F 42.1 °F 93% 29.99 in 10.0 mi Calm Calm - N/A   Clear
1:53 AM 44.1 °F 41.0 °F 89% 30.00 in 10.0 mi Calm Calm - N/A   Clear
2:53 AM 43.0 °F 39.9 °F 89% 29.99 in 10.0 mi Calm Calm - N/A   Clear
3:53 AM 41.0 °F 39.0 °F 93% 29.98 in 10.0 mi Calm Calm - N/A   Clear
4:53 AM 39.9 °F 37.9 °F 93% 29.98 in 10.0 mi Calm Calm - N/A   Clear
5:53 AM 41.0 °F 39.0 °F 93% 29.99 in 10.0 mi Calm Calm - N/A   Clear
6:53 AM 41.0 °F 39.0 °F 93% 29.99 in 10.0 mi Calm Calm - 0.01 in   Clear
7:53 AM 42.1 °F 39.9 °F 92% 30.00 in 10.0 mi Calm Calm - N/A   Clear
8:53 AM 50.0 °F 46.9 °F 89% 30.01 in 10.0 mi Calm Calm - N/A   Clear
9:53 AM 57.9 °F 46.0 °F 65% 30.01 in 10.0 mi Calm Calm - N/A   Clear
10:53 AM 60.1 °F 44.1 °F 55% 30.01 in 10.0 mi ENE 6.9 mph - N/A   Clear
11:53 AM 64.0 °F 44.1 °F 48% 30.01 in 10.0 mi Calm Calm - N/A   Clear
12:53 PM 69.1 °F 44.1 °F 40% 29.99 in 10.0 mi Calm Calm - N/A   Clear
1:53 PM 71.1 °F 42.1 °F 35% 29.95 in 10.0 mi Calm Calm - N/A   Clear
2:53 PM 73.0 °F 39.9 °F 30% 29.93 in 10.0 mi North 4.6 mph - N/A   Clear
3:53 PM 73.9 °F 42.1 °F 32% 29.91 in 10.0 mi North 6.9 mph - N/A   Clear
4:53 PM 73.9 °F 41.0 °F 30% 29.91 in 10.0 mi NNE 3.5 mph - N/A   Clear
5:53 PM 70.0 °F 39.9 °F 33% 29.91 in 10.0 mi NNE 3.5 mph - N/A   Clear
6:53 PM 60.1 °F 50.0 °F 69% 29.92 in 10.0 mi Calm Calm - N/A   Clear
7:53 PM 52.0 °F 48.0 °F 86% 29.93 in 10.0 mi Calm Calm - N/A   Clear
8:53 PM 48.9 °F 46.0 °F 90% 29.94 in 10.0 mi Calm Calm - N/A   Clear
9:53 PM 48.0 °F 45.0 °F 89% 29.95 in 10.0 mi Calm Calm - N/A   Clear
10:53 PM 46.9 °F 45.0 °F 93% 29.96 in 10.0 mi Calm Calm - N/A   Clear
11:53 PM 48.0 °F 45.0 °F 89% 29.96 in 10.0 mi Calm Calm - N/A   Clear